Location: A O Calhoun Middle School
(33.2198°N, 97.1397°W)
Time: 01:09:33
(UTC+00:00)

DELTA 2 R/B (1) - Pass Details

Date: 03 July 2022
Orbit: 790 x 803 km, 39.6° (Epoch: 16 August)

Event Time Altitude Azimuth Distance (km) Brightness Sun altitude
Rises 04:03:49 0° 284° (WNW) 3,295 7.6 -23.5°
Reaches altitude 10° 04:06:46 10° 270° (W) 2,365 6.5 -23.9°
Maximum altitude 04:11:05 23° 219° (SW) 1,631 5.0 -24.5°
Enters shadow 04:11:07 23° 218° (SW) 1,631 5.0 -24.5°
